Terminal Aerodrome Forecast
Issued by NWS Upton, NY

Home | Current Version | Previous Version | Text Only | Print | Product List | Glossary On
Versions: 1 2 3 4 5 6 7 8 9 10 11 12 13 14 15 16 17 18 19 20 21 22 23 24 25 26 27 28 29 30 31
010
FTUS41 KOKX 251936 AAA
TAFLGA
TAF AMD
KLGA 251936Z 2520/2618 34008KT P6SM SKC
     FM260100 04005KT P6SM SKC
     FM261600 12008KT P6SM FEW200=

USA.gov is the U.S. government's official web portal to all federal, state and local government web resources and services.